Upington, South Africa

3:22 PM SAST on July 23, 2017 (GMT +0200)
Upington

Weather History for FAUP - November, 2012

Change the Weather History Date:

Tuesday, November 13, 2012

  Actual Average Record
Temperature  
Mean Temperature 71 °F -  
Max Temperature 86 °F 90 °F 102 °F (1998)
Min Temperature 56 °F 61 °F 50 °F (2011)
Cooling Degree Days 6    
Growing Degree Days 21 (Base 50)    
Moisture  
Dew Point 35 °F    
Average Humidity 27    
Maximum Humidity 51    
Minimum Humidity 4    
Precipitation  
Precipitation 0.00 in 0.01 in - ()
Sea Level Pressure  
Sea Level Pressure 30.05 in    
Wind  
Wind Speed 7 mph ()    
Max Wind Speed 14 mph    
Max Gust Speed -    
Averages and records for this station are not official NWS values.
T = Trace of Precipitation, MM = Missing Value Source: Averaged Metar Reports

Daily Weather History Graph

Daily Weather History Graph

Search for Another Location

Airport or City:

Trip Planner

Search our weather history database for the weather conditions in past years. The results will help you decide how hot, cold, wet, or windy it might be!

Date:

Astronomy

Nov. 13, 2012 Rise Set
Actual Time 5:34 AM SAST 7:04 PM SAST
Civil Twilight 5:09 AM SAST 7:29 PM SAST
Nautical Twilight 4:38 AM SAST 8:00 PM SAST
Astronomical Twilight 4:06 AM SAST 8:32 PM SAST
Moon 4:56 AM SAST (11/13) 6:44 PM SAST (11/13)
Length of Visible Light 14h 20m
Length of Day
13h 29m
Waning Crescent, 0% of the Moon is Illuminated
Nov 13
Waning Crescent
Nov 14
New
Nov 20
First Quarter
Nov 28
Full
Dec 6
Last Quarter

Hourly Weather History & Observations

Time (SAST) Temp. Dew Point Humidity Pressure Visibility Wind Dir Wind Speed Gust Speed Precip Events Conditions
12:00 AM 69.8 °F 39.2 °F 33% 30.01 in - SW 11.5 mph - N/A   Unknown
1:00 AM 64.4 °F 41.0 °F 42% 30.04 in - SW 2.3 mph - N/A   Clear
2:00 AM 65 °F 43 °F 33%  in 25 mi SW 13.8 mph - -  
2:00 AM 64.4 °F 41.0 °F 42% 30.04 in - SW 12.7 mph - N/A   Clear
3:00 AM 60.8 °F 37.4 °F 42% 30.04 in - SW 5.8 mph - N/A   Clear
4:00 AM 59.0 °F 33.8 °F 39% 30.04 in - SSW 10.4 mph - N/A   Clear
5:00 AM 57 °F 39 °F 39%  in 25 mi SSW 6.9 mph - -  
5:00 AM 57.2 °F 37.4 °F 48% 30.04 in - SSW 6.9 mph - N/A   Clear
6:00 AM 57.2 °F 39.2 °F 51% 30.06 in - SSW 9.2 mph - N/A   Clear
7:00 AM 59.0 °F 39.2 °F 48% 30.09 in - SSW 10.4 mph - N/A   Clear
8:00 AM 63 °F 41 °F 33%  in 25 mi SSW 6.9 mph - -  
8:00 AM 62.6 °F 41.0 °F 45% 30.09 in - SSW 6.9 mph - N/A   Clear
8:50 AM 66.2 °F 41.0 °F 40% 30.12 in - SSW 9.2 mph - N/A   Clear
9:00 AM 64.4 °F 39.2 °F 40% 30.12 in - SSW 9.2 mph - N/A   Clear
10:00 AM 69.8 °F 37.4 °F 31% 30.09 in - South 4.6 mph - N/A   Clear
10:32 AM 73.4 °F 37.4 °F 27% 30.09 in - SW 5.8 mph - N/A   Clear
11:00 AM 74 °F 36 °F 15%  in 25 mi SSW 8.1 mph - -  
11:00 AM 73.4 °F 35.6 °F 25% 30.09 in - SSW 6.9 mph - N/A   Clear
11:44 AM 77.0 °F 33.8 °F 21% 30.09 in - SW 6.9 mph - N/A   Clear
12:00 PM 78.8 °F 33.8 °F 20% 30.06 in - WSW 5.8 mph - N/A   Clear
1:00 PM 78.8 °F 30.2 °F 17% 30.06 in - SW 6.9 mph - N/A   Clear
2:00 PM 83 °F 30 °F 7%  in 25 mi SSW 6.9 mph - -  
2:00 PM 82.4 °F 30.2 °F 15% 30.06 in - SSW 6.9 mph - N/A   Clear
3:00 PM 84.2 °F 26.6 °F 12% 30.04 in - SSW 5.8 mph - N/A   Clear
4:00 PM 84.2 °F 24.8 °F 11% 30.01 in - South 6.9 mph - N/A   Clear
5:00 PM 86 °F 21 °F 4%  in 25 mi SSW 6.9 mph - -  
5:00 PM 84.2 °F 21.2 °F 10% 29.98 in - SSW 6.9 mph - N/A   Clear
6:00 PM 84.2 °F 24.8 °F 11% 29.98 in - SSW 6.9 mph - N/A   Clear
7:00 PM 80.6 °F 30.2 °F 16% 30.01 in - SW 6.9 mph - N/A   Clear
8:00 PM 74 °F 33 °F 13%  in 25 mi WSW 5.8 mph - -  
8:00 PM 73.4 °F 32.0 °F 22% 30.01 in - WSW 4.6 mph - N/A   Clear
9:00 PM 69.8 °F 35.6 °F 28% 30.01 in - West 5.8 mph - N/A   Unknown
10:00 PM 66.2 °F 35.6 °F 32% 30.04 in - West 5.8 mph - N/A   Unknown
11:00 PM 67 °F 35 °F 20%  in - WNW 6.9 mph - -  
11:00 PM 66.2 °F 33.8 °F 30% 30.04 in - WNW 6.9 mph - N/A   Unknown